Theta_e
329 318 313 313 316 313 308 300 291 289 292 288 288 290 290 296 302 300 300 303 300 303 306 315 323 313 314 314 319 318 327 318 317 309 306 318 338 336 339 341 344 346 347 350 351 353 354 355 355 355 354 354 353 354 354 354 354 354 354 354 355 354 354 354 355 355 355 355 354 354 354 353 353 353 353 352 352 352 352 352 352 352 352 351 351 351 351 351 351 350 350 351 351 351 351 352 351
322 316 311 313 313 303 300 295 291 288 289 286 289 290 293 295 300 298 300 301 301 304 304 326 329 329 329 329 329 325 320 326 328 322 328 336 338 338 342 343 344 344 347 350 351 352 353 354 355 355 354 353 353 353 354 354 354 353 354 354 354 354 354 354 355 355 355 355 354 354 353 353 353 353 352 352 352 352 352 351 351 351 350 350 350 351 351 350 350 349 349 349 349 350 351 351 350
319 310 304 310 308 302 296 295 289 284 287 286 286 292 295 295 296 300 301 303 305 306 310 325 322 320 326 324 320 317 311 330 330 331 331 337 332 335 342 344 345 346 348 350 351 351 352 353 355 354 353 353 353 353 353 353 354 354 354 354 354 354 354 355 355 355 354 354 354 353 353 353 352 352 352 352 351 351 352 351 351 351 350 350 350 350 349 349 349 349 349 348 347 348 349 349 349
310 312 305 305 303 295 294 291 288 286 286 287 286 289 294 296 298 300 303 305 305 304 306 321 320 328 325 319 324 329 327 328 331 331 329 333 333 338 342 344 347 347 348 349 350 351 352 354 354 354 353 353 353 353 353 353 353 353 353 354 354 354 354 354 355 354 354 354 354 353 352 352 352 352 352 351 351 351 352 351 350 350 350 350 350 349 348 348 348 348 348 348 346 347 348 348 347
308 312 309 299 296 297 293 289 285 285 287 285 287 290 297 298 299 300 302 305 305 302 307 314 323 327 332 328 331 321 318 330 331 334 333 336 340 341 342 344 345 346 346 349 350 351 351 355 354 353 353 353 352 352 352 352 353 353 353 354 354 354 355 355 355 354 354 354 354 353 352 352 352 351 351 351 351 350 350 351 351 349 349 350 350 348 348 348 349 349 349 348 347 347 347 348 348
304 303 305 303 299 296 293 288 286 286 291 289 290 291 295 299 299 301 302 303 303 302 303 318 322 323 326 328 332 326 331 323 331 334 335 334 340 342 343 345 344 344 346 348 349 350 350 354 354 354 353 352 352 352 352 353 353 353 353 354 354 355 355 355 354 354 354 354 353 353 352 351 351 351 351 351 350 350 350 350 351 350 350 350 349 348 347 348 350 349 350 349 348 347 347 347 347
302 298 298 301 300 296 289 285 286 287 290 291 290 292 294 296 298 299 300 301 302 302 303 310 326 324 323 329 334 337 339 336 333 333 336 338 341 342 344 343 343 343 346 348 349 349 350 353 353 353 353 352 352 352 353 353 353 353 354 354 354 354 355 354 354 354 354 353 353 352 352 352 351 351 350 350 350 350 349 349 349 349 349 349 348 347 348 349 349 349 349 349 348 347 348 348 347
311 299 297 293 292 291 287 285 288 286 288 292 293 294 296 297 297 298 298 299 297 300 303 326 326 320 319 334 324 334 337 337 336 337 339 339 341 342 342 342 342 343 346 348 349 349 353 353 353 352 352 352 352 352 353 352 352 353 354 354 354 354 354 354 354 353 353 352 352 352 352 352 351 351 351 350 350 349 349 348 348 348 349 348 348 348 348 348 348 347 348 348 348 348 347 347 347
301 300 300 292 291 290 284 287 288 289 290 293 293 296 308 302 301 299 299 299 299 299 300 325 324 316 320 329 327 333 333 336 337 340 339 339 340 340 341 341 341 342 345 346 347 349 350 353 353 352 352 352 352 352 352 352 353 353 354 354 354 354 354 354 353 353 353 352 352 352 352 352 351 351 350 350 349 348 348 347 348 350 349 347 346 347 347 347 347 348 348 347 348 348 347 347 347
300 298 291 291 288 288 286 286 286 289 292 294 294 296 297 297 298 298 298 297 298 299 300 321 330 318 329 324 327 330 330 336 337 336 338 338 338 338 339 341 342 342 343 345 346 348 350 353 352 352 351 352 352 352 352 352 352 354 354 354 354 354 354 353 353 353 352 352 352 351 351 351 351 350 350 349 348 348 347 347 349 348 347 347 346 347 347 347 347 347 348 348 348 348 347 346 346
295 297 294 292 288 284 286 288 289 290 290 291 292 295 297 299 298 297 298 297 298 298 299 329 324 328 330 328 327 334 335 335 334 332 335 337 337 337 338 341 342 343 342 344 346 347 349 349 352 352 352 352 352 352 352 353 353 354 354 354 354 354 353 353 352 352 352 351 351 351 350 350 350 349 348 348 347 346 345 345 347 347 346 346 346 347 347 346 346 347 346 347 346 347 346 346 346
293 292 295 288 286 286 287 287 290 290 292 292 294 297 297 297 297 295 297 295 297 297 298 326 320 333 326 326 324 330 333 332 333 334 335 336 336 337 338 340 341 342 343 344 346 346 347 348 349 352 352 352 352 352 353 353 354 354 354 354 354 353 353 352 352 351 351 350 349 349 349 348 348 348 347 347 346 345 345 345 345 345 346 346 346 346 346 345 346 346 346 345 346 347 346 346 346
295 291 288 286 284 286 287 286 286 292 291 292 295 298 299 296 296 297 296 297 297 296 299 320 333 332 322 325 330 332 330 331 333 335 336 335 336 337 338 339 340 342 343 345 344 345 346 347 348 349 351 352 352 352 353 353 353 353 353 353 353 353 352 351 351 350 349 349 348 347 347 346 347 347 346 345 346 345 345 344 344 345 345 346 346 345 345 345 346 346 346 346 346 346 347 346 346
297 293 291 287 285 286 287 286 285 288 288 294 296 299 297 296 296 298 299 296 297 296 302 326 334 333 327 329 329 326 329 332 334 336 336 337 337 337 338 339 340 342 343 343 343 343 344 345 347 348 349 349 350 351 353 353 353 353 353 353 353 352 351 351 350 350 349 348 347 346 346 345 345 345 345 344 344 345 345 344 344 344 345 345 345 344 344 344 344 345 346 346 346 346 346 346 346
297 294 291 288 285 286 286 288 288 288 290 293 295 297 297 301 300 298 296 296 298 303 333 338 334 326 322 326 325 327 331 333 336 336 336 337 337 337 338 340 340 341 342 342 343 343 343 344 345 347 348 348 348 349 350 353 353 353 353 352 352 352 351 350 349 349 348 348 348 346 346 346 345 344 344 344 344 346 344 344 344 344 345 345 344 343 343 343 344 344 344 344 346 346 347 346 346
298 295 292 289 287 287 287 288 287 287 291 294 297 297 297 297 298 297 298 299 299 330 331 328 335 322 329 327 328 333 335 335 336 336 336 335 336 337 338 339 339 340 340 341 341 342 342 343 344 346 346 347 348 348 349 350 353 353 353 352 352 351 350 350 350 349 349 348 347 346 346 345 344 342 344 341 343 345 344 344 343 343 344 345 344 343 342 343 344 345 343 344 345 344 346 346 345
298 298 289 286 287 287 289 287 288 288 292 294 296 297 295 296 298 298 304 306 307 324 330 331 331 338 333 331 335 337 336 336 336 335 334 333 334 334 335 336 337 337 339 339 340 341 342 344 345 345 346 347 349 350 349 349 351 353 352 352 352 351 350 350 350 349 348 348 346 346 344 338 336 335 338 336 342 342 343 343 343 343 344 344 343 343 343 343 343 343 343 345 343 345 346 346 343
297 292 289 287 290 289 290 291 291 291 293 294 296 295 296 294 296 300 304 321 324 328 330 334 337 336 338 337 338 337 335 334 334 332 330 330 331 331 331 333 334 333 336 337 339 341 343 345 345 345 346 348 349 350 349 349 350 351 349 349 350 349 349 349 346 345 347 341 346 342 337 341 333 332 336 342 336 340 340 342 342 343 344 344 344 343 343 343 343 344 343 343 344 345 345 335 335
295 288 289 289 291 293 293 295 294 293 293 295 295 296 296 296 297 298 299 312 313 322 328 331 331 334 336 336 335 334 334 332 332 330 329 328 328 327 329 331 331 333 333 335 337 341 343 344 346 345 347 348 349 349 349 349 348 347 347 347 348 349 348 347 344 345 340 339 337 337 340 336 333 333 335 340 338 341 340 342 343 343 344 344 344 343 344 343 343 343 344 344 344 344 333 327 328
297 292 290 291 294 293 296 295 295 295 296 296 295 296 295 298 297 300 298 296 323 321 324 329 330 330 332 333 334 333 332 331 331 330 328 327 327 327 327 328 329 331 332 334 336 341 342 343 345 345 347 348 348 348 348 348 348 347 347 348 347 345 344 345 342 341 340 337 336 336 335 336 335 332 345 343 343 337 337 342 343 343 343 344 344 343 343 343 345 344 344 342 340 332 327 327 328
295 295 292 292 296 294 296 296 297 297 297 295 295 296 296 299 298 298 297 296 302 318 326 327 329 331 332 333 333 332 331 330 330 330 328 327 327 327 327 328 329 331 333 335 336 339 341 343 344 345 347 347 347 347 347 347 347 347 347 347 347 343 343 343 342 340 338 336 336 337 335 336 335 336 336 338 334 333 328 329 332 332 333 331 342 330 330 331 331 328 328 330 324 324 325 325 326
294 295 296 296 294 295 298 298 297 296 297 295 295 295 297 299 298 298 297 294 293 301 320 330 334 335 334 333 333 332 331 330 330 329 328 327 325 325 327 327 330 332 334 333 334 337 340 343 343 344 346 346 347 347 347 347 347 346 346 347 346 344 343 343 343 340 338 337 336 337 337 334 333 333 333 334 333 331 329 329 327 328 328 329 334 331 330 329 326 325 325 328 325 322 323 323 323
292 294 294 295 299 296 296 297 298 298 297 297 295 296 297 296 296 296 296 296 296 298 317 334 336 336 336 336 334 332 330 330 330 329 328 327 326 326 326 328 329 330 332 332 335 337 339 341 342 344 344 345 346 347 347 346 346 346 346 346 345 345 344 344 343 342 340 336 336 338 337 334 332 332 332 333 332 333 332 332 331 329 329 330 332 332 331 328 327 327 325 325 323 323 323 323 323
294 292 295 295 294 295 297 298 298 296 295 296 297 297 296 295 295 297 297 300 299 303 321 337 337 337 337 334 334 332 331 330 330 330 330 328 327 327 328 328 329 332 331 332 334 336 338 339 341 342 343 344 344 346 345 345 345 346 346 345 345 345 344 343 344 343 341 337 338 339 342 336 335 333 332 331 331 331 332 333 332 331 332 331 331 331 329 328 328 328 327 325 325 324 324 324 324
292 292 293 294 294 294 295 295 295 296 296 297 297 296 297 296 296 297 299 301 300 332 335 337 337 336 335 335 333 333 332 332 332 332 332 330 330 330 330 330 331 332 330 332 334 335 336 339 340 341 342 342 344 345 344 344 345 345 345 344 344 346 343 343 344 343 340 339 338 339 342 337 335 336 334 333 331 332 330 331 331 332 331 334 331 332 331 329 328 328 328 328 327 326 325 324 324
293 292 294 294 295 295 295 294 294 295 297 297 295 295 296 297 297 295 299 301 305 335 336 336 336 334 334 334 334 334 333 333 333 333 332 332 331 330 329 330 332 331 331 332 333 334 335 337 338 339 340 341 343 344 343 342 343 343 344 344 344 344 341 341 341 342 340 339 339 339 341 338 336 336 335 333 333 332 331 331 332 331 333 332 332 334 331 330 329 329 330 330 328 327 327 327 331
293 294 295 294 295 295 296 295 295 295 295 295 295 294 295 296 296 292 296 297 334 334 333 335 334 333 334 334 335 335 334 334 334 335 334 333 331 330 330 331 332 332 332 331 333 334 335 336 336 338 339 341 341 342 341 341 342 342 343 344 343 343 341 340 340 340 340 339 340 340 340 340 337 335 335 334 332 331 331 333 333 332 332 332 333 334 333 332 330 330 331 330 329 329 330 330 333
295 294 293 293 295 296 296 295 294 294 294 294 294 295 295 297 295 295 298 329 334 332 332 333 333 333 334 335 335 336 336 336 337 336 333 332 330 331 330 331 332 332 331 331 333 335 335 335 335 336 337 338 339 340 340 339 340 341 342 342 342 342 341 339 339 339 341 340 340 340 339 338 339 335 336 334 334 332 332 332 332 331 333 333 335 333 332 332 332 334 334 333 332 331 332 331 331
295 294 290 291 291 292 294 294 295 294 293 294 294 292 291 293 293 296 299 323 332 331 331 331 332 333 335 335 336 336 336 337 338 336 335 335 333 333 331 333 334 332 333 333 334 335 334 335 335 335 336 336 337 337 337 336 336 339 340 340 340 342 341 339 338 339 340 340 340 339 338 337 337 336 335 335 338 333 333 332 332 334 334 335 334 334 333 332 333 334 334 333 332 331 331 331 334
294 292 291 291 290 289 292 293 294 294 295 295 294 286 289 291 294 296 299 329 329 330 330 331 332 333 335 335 335 336 338 338 337 337 337 337 335 334 333 335 336 334 334 334 335 334 336 336 336 336 335 335 336 336 336 334 334 336 339 339 340 340 340 338 339 339 340 340 339 337 336 337 336 334 335 335 335 334 334 333 333 334 334 334 334 333 331 330 330 331 331 331 336 329 328 328 328
288 290 290 285 284 284 290 293 292 292 295 294 296 287 287 289 293 296 297 328 328 327 329 330 331 332 334 335 335 336 337 338 338 339 336 335 335 335 335 336 337 336 336 336 334 335 336 336 337 335 336 334 336 335 335 334 333 335 337 337 338 338 338 338 338 338 339 339 338 336 336 338 337 336 336 337 335 335 334 333 332 332 333 331 331 331 330 328 329 330 329 329 328 326 326 328 328
288 286 284 284 285 281 290 293 293 291 294 295 294 288 289 291 293 296 297 312 324 324 327 329 329 330 333 334 335 336 336 336 333 330 330 329 331 331 331 334 339 337 337 336 336 336 336 336 337 335 335 334 334 334 334 334 333 333 336 340 336 336 337 337 337 338 338 337 336 336 337 339 338 337 337 335 334 334 332 332 332 332 333 331 330 332 332 331 327 328 328 328 326 327 326 327 325
286 286 282 283 282 283 287 292 293 294 294 293 294 284 286 290 293 296 297 305 321 322 325 327 327 328 331 333 334 335 331 322 326 328 329 329 330 330 330 330 331 336 336 336 336 335 335 336 337 335 333 333 333 333 333 333 333 333 334 336 335 335 335 336 336 337 336 336 335 336 337 340 337 338 338 336 335 333 331 331 330 332 333 330 329 328 330 328 328 328 327 328 327 325 326 325 327
282 283 281 281 283 283 284 286 291 292 293 290 292 291 287 289 292 296 295 301 317 320 323 325 326 327 329 332 334 335 325 324 324 325 327 329 329 330 330 331 330 331 334 334 333 333 333 334 336 335 334 333 333 333 333 333 332 333 333 334 336 334 335 335 335 336 335 335 335 336 337 338 337 336 337 336 333 334 333 331 331 330 331 330 329 328 326 326 326 326 327 327 327 325 324 325 327
281 280 282 283 284 284 286 287 289 291 290 291 289 289 289 292 292 293 295 295 308 315 320 324 325 326 329 332 331 325 322 324 323 325 327 328 329 330 330 330 330 331 333 334 334 334 334 333 334 335 333 332 332 333 333 332 332 332 333 334 334 333 333 331 334 334 334 334 335 335 336 338 338 335 336 336 335 335 331 330 329 330 330 329 327 327 326 327 327 326 326 327 327 326 326 326 327
286 283 283 283 283 282 283 288 290 293 289 288 289 287 288 291 292 293 294 295 295 297 300 318 323 326 327 326 325 325 324 323 325 327 327 328 328 329 329 329 329 331 333 333 333 333 333 333 333 333 332 333 332 332 333 331 332 332 331 331 332 332 331 333 330 332 331 332 333 334 334 333 336 335 334 334 334 332 329 330 331 330 329 329 328 328 326 326 329 329 328 327 325 325 325 326 325
288 286 284 283 284 284 285 286 289 291 290 289 289 289 289 290 291 293 295 294 293 294 301 314 322 326 325 323 324 325 323 323 326 327 328 328 328 328 329 328 328 331 331 332 331 331 331 332 333 331 332 333 332 332 331 331 330 330 330 331 330 330 331 330 331 329 330 330 332 332 331 332 333 335 336 334 331 337 331 329 330 328 329 329 328 328 330 330 328 327 327 327 326 324 323 323 325
286 285 284 283 283 283 286 288 291 292 290 287 288 288 288 290 291 293 294 293 293 293 299 313 321 325 324 325 324 322 322 325 326 325 327 328 327 327 327 327 329 329 329 330 330 330 331 332 332 332 332 333 333 332 332 332 332 332 331 330 329 329 330 330 329 328 329 332 331 330 331 331 333 334 337 333 331 330 328 328 330 330 330 330 332 333 330 336 333 330 328 324 324 325 324 323 326
287 283 282 282 282 284 287 288 290 292 290 286 287 288 288 289 291 293 293 293 294 295 300 311 321 324 322 324 322 321 322 322 324 325 326 326 326 326 326 328 329 330 330 330 330 330 330 331 332 332 332 333 332 333 332 331 330 331 331 328 331 327 327 329 329 331 333 330 329 330 331 331 333 334 334 334 331 329 328 328 330 329 331 336 332 330 331 331 328 325 325 324 324 323 323 324 325
288 284 281 281 281 284 281 287 289 291 289 285 287 287 288 289 290 291 293 293 294 296 299 311 323 323 322 324 322 321 321 321 322 323 323 325 325 326 326 327 328 329 329 329 330 329 330 331 332 332 333 333 332 333 333 331 331 330 330 331 329 329 327 331 330 330 329 329 329 330 330 331 333 333 334 334 332 329 329 330 331 331 333 335 331 329 329 329 326 324 323 325 322 319 317 320 322
287 286 284 282 283 284 284 284 287 288 289 292 287 286 285 285 288 290 293 294 294 307 309 311 317 323 324 325 323 322 321 321 322 322 323 324 324 325 326 327 328 328 328 329 329 330 330 331 332 332 333 332 333 334 332 331 331 330 330 329 330 329 329 327 328 326 327 328 329 328 330 331 333 333 334 334 334 331 329 330 331 331 332 332 333 331 330 329 327 325 323 322 322 320 318 314 318
286 287 287 286 285 285 286 287 286 282 281 286 288 280 280 284 287 289 292 292 292 302 307 311 317 320 323 323 321 322 323 323 322 322 323 324 325 325 326 327 327 328 328 329 330 330 330 331 332 333 333 332 332 333 332 332 331 329 328 327 326 324 325 325 326 327 326 328 329 328 330 332 334 333 334 334 334 334 331 330 330 331 330 328 331 331 330 328 327 324 324 322 321 321 320 316 316
285 286 289 287 287 286 285 286 286 279 279 284 290 283 277 280 285 288 290 290 290 306 307 312 316 320 323 322 321 321 321 321 323 323 324 324 325 325 326 326 327 328 329 331 331 330 331 332 332 333 333 332 332 332 332 332 330 329 329 329 329 327 326 325 324 325 328 326 328 329 331 331 334 335 333 334 334 334 332 330 331 330 330 330 331 328 327 326 325 325 324 321 322 321 318 317 317
285 287 290 288 286 286 286 285 284 280 284 287 288 284 279 277 285 288 290 289 293 304 308 312 315 319 322 322 321 321 321 321 321 322 323 324 325 326 325 327 327 328 330 330 330 330 330 331 332 332 333 332 332 332 332 332 330 329 328 328 328 327 327 326 325 326 327 329 329 328 330 331 333 334 333 333 333 332 331 330 330 330 330 329 329 327 325 323 321 322 323 321 320 320 319 319 318
285 287 290 289 289 288 287 285 284 283 284 280 282 287 279 276 283 287 291 294 301 304 308 311 313 318 320 321 321 321 321 321 322 322 323 324 325 326 327 327 328 329 330 329 329 330 331 332 332 332 332 332 331 332 332 331 331 330 329 328 327 326 327 326 327 329 328 329 327 326 330 331 330 330 330 329 329 330 330 329 328 327 326 325 326 323 321 320 320 319 319 320 319 318 319 321 318
288 290 290 290 289 288 287 284 284 283 282 278 282 284 279 276 280 285 292 293 299 304 308 311 313 316 319 320 320 321 322 321 322 323 323 324 326 327 328 328 328 328 330 330 330 331 331 331 331 330 330 331 331 331 331 330 330 330 328 327 327 325 326 326 327 327 326 326 327 326 328 329 328 327 327 327 327 327 326 326 325 324 324 324 324 320 319 320 319 319 318 318 317 319 317 318 319
289 290 289 288 287 287 286 284 283 281 275 280 283 283 283 276 279 286 290 294 300 305 309 311 312 315 318 319 319 320 321 321 322 322 323 324 326 326 327 327 327 328 329 329 330 331 331 331 330 329 329 330 331 331 330 329 329 329 328 327 327 325 326 326 326 325 324 325 326 326 328 327 326 326 325 325 325 325 325 326 324 323 324 326 322 320 319 318 318 318 318 318 319 319 318 318 318
290 287 286 284 283 284 282 280 281 276 274 276 280 284 284 277 276 283 289 293 301 308 308 310 312 314 316 317 318 320 321 321 322 322 323 324 325 325 327 326 326 327 328 328 330 331 330 330 330 329 328 329 329 330 330 329 329 328 328 328 327 326 327 326 326 325 325 326 326 327 327 326 325 325 324 323 323 322 324 323 323 322 322 320 320 319 318 317 318 318 318 319 318 318 318 320 320
289 285 285 281 275 277 273 277 274 276 275 280 280 283 280 279 283 290 290 291 304 309 309 311 313 314 315 316 317 320 321 321 322 322 323 323 323 324 325 326 326 326 327 328 330 331 331 330 329 328 328 329 329 330 329 329 328 328 327 327 327 327 327 327 326 325 325 326 325 326 325 323 322 322 321 321 319 319 321 321 320 320 320 320 318 318 317 316 316 317 317 317 317 319 319 320 321
287 284 283 280 275 274 272 273 271 274 278 281 282 283 281 281 284 289 290 292 308 311 312 314 315 315 315 316 317 319 320 321 321 322 323 323 324 324 325 326 326 326 327 328 330 330 331 330 330 329 329 330 330 330 329 328 328 328 328 327 327 327 326 327 326 326 325 326 326 327 325 322 320 321 321 320 319 319 320 320 320 319 318 318 318 317 316 317 316 318 316 318 319 320 319 317 317
287 287 283 282 280 275 269 273 272 274 275 279 282 281 277 280 284 288 291 294 307 313 313 313 316 316 317 317 317 318 319 320 321 322 322 323 324 325 325 326 326 326 327 328 329 330 331 331 330 329 329 330 330 330 329 328 327 327 326 326 326 326 326 325 324 325 325 325 326 326 324 322 321 322 322 321 319 318 318 318 318 318 317 316 315 316 319 316 315 317 319 319 321 319 317 316 314
289 287 286 279 282 278 276 275 276 276 278 277 280 278 280 283 288 294 295 295 308 313 313 314 315 316 316 317 316 317 318 319 321 321 322 323 324 325 326 326 326 327 328 329 329 330 331 331 331 331 330 330 331 330 329 328 327 326 325 325 324 325 325 324 324 324 324 325 325 324 322 321 321 322 321 320 318 318 318 318 318 317 316 316 316 316 316 317 316 317 317 318 318 318 313 313 313
286 286 283 285 286 285 276 276 279 275 275 274 274 281 283 284 288 294 299 296 305 311 312 313 313 315 316 316 317 318 318 319 320 321 322 323 324 325 326 326 326 327 328 328 329 330 331 331 331 330 331 331 331 331 330 328 326 325 324 324 324 324 324 324 324 324 323 323 323 323 322 322 321 320 319 319 318 317 317 317 316 315 315 314 315 316 317 318 322 320 318 317 317 316 314 312 312
286 283 285 288 290 287 282 274 274 270 272 272 277 280 279 280 279 290 299 298 301 308 310 312 312 313 314 315 317 318 318 319 320 321 322 322 323 325 326 326 326 327 328 329 329 331 332 333 332 331 331 330 331 331 329 327 325 324 324 324 324 324 325 325 324 323 322 322 321 321 321 319 319 319 319 319 318 317 317 319 315 315 314 316 316 317 319 321 322 321 319 317 316 315 313 313 312
290 287 291 287 278 279 277 277 272 271 271 271 278 278 277 278 281 287 296 300 301 305 309 310 311 312 313 314 315 317 318 319 319 320 321 321 322 324 326 326 327 328 329 330 331 332 332 333 333 332 331 331 331 330 329 327 325 325 325 324 324 325 325 324 323 323 322 321 320 319 319 318 318 319 319 317 316 316 315 315 315 314 315 316 318 320 321 320 321 320 319 317 315 314 312 311 311
292 292 291 290 286 278 278 278 277 277 269 270 274 276 277 282 281 287 296 301 303 305 307 309 312 313 313 314 314 315 316 317 318 319 320 321 322 324 326 327 327 328 329 330 331 332 332 333 333 332 332 331 330 329 327 325 324 325 324 325 325 325 324 323 322 321 320 319 318 318 318 318 318 318 317 317 315 315 315 314 314 315 315 316 317 319 320 320 319 319 319 316 314 313 311 309 309
284 287 285 286 288 287 285 284 279 278 270 268 269 273 275 282 286 289 296 302 305 309 309 310 311 313 314 315 315 315 316 317 318 319 320 320 321 324 327 328 329 330 330 330 331 331 332 333 331 331 330 329 328 327 326 325 325 324 325 324 323 322 322 321 320 320 318 317 317 317 318 318 318 317 316 315 316 314 314 314 314 315 316 316 316 317 319 318 318 318 317 315 313 311 310 309 310
285 285 282 285 283 281 280 276 281 279 279 272 271 273 276 284 292 291 290 301 307 310 311 311 312 313 314 315 315 316 316 317 318 319 319 319 322 325 327 328 329 329 329 330 331 331 331 331 330 330 330 329 328 326 325 325 325 325 324 322 321 321 320 320 319 317 316 316 316 316 317 317 316 316 316 314 314 313 313 313 313 313 314 315 316 316 317 317 317 317 316 315 313 312 311 310 309
Wind_Speed
4 3 4 0 2 2 2 1 1 2 2 6 3 2 5 3 6 5 8 1 3 3 1 1 2 1 4 7 16 6 2 8 6 10 7 1 4 11 11 11 14 14 13 11 10 12 14 18 20 20 20 20 19 19 19 20 19 19 19 17 18 18 18 18 18 18 17 16 16 15 15 15 14 14 13 14 13 13 12 12 13 13 13 12 13 13 12 12 12 12 11 11 11 11 11 10 10
3 4 1 0 1 1 2 1 1 1 1 4 7 2 6 2 0 5 8 9 5 4 0 4 0 4 4 1 3 2 1 3 1 1 2 2 9 7 11 14 15 16 13 11 10 10 12 15 20 20 19 20 20 19 19 20 20 19 19 17 18 18 18 18 18 18 17 16 16 16 15 14 14 13 13 13 13 13 12 12 12 12 12 12 12 11 11 11 11 10 10 11 11 11 11 11 9
3 4 1 3 3 2 0 1 4 2 7 12 4 8 1 4 8 11 9 15 8 8 5 2 2 2 1 2 2 3 6 1 4 1 2 4 12 5 11 14 14 14 15 10 10 11 10 13 20 19 19 20 20 20 20 20 19 19 19 18 17 17 17 17 18 18 17 16 15 15 15 14 14 14 13 13 13 12 11 12 12 11 11 11 10 10 9 9 9 9 9 10 10 11 11 10 9
1 1 2 2 1 3 2 1 2 7 8 11 3 4 4 8 10 12 13 13 11 1 1 1 2 0 1 0 1 2 1 1 2 5 5 8 1 9 11 13 13 11 11 10 10 10 10 17 20 19 20 19 19 19 19 20 19 19 18 18 18 17 17 17 17 17 17 17 15 15 14 14 14 13 13 12 12 12 11 10 12 12 11 10 9 9 8 8 7 7 7 8 9 9 10 9 9
1 1 1 2 4 1 2 4 4 5 14 4 7 3 9 7 12 9 10 11 10 4 2 2 0 2 0 0 0 1 2 2 4 5 2 1 7 9 12 12 11 11 10 10 10 10 11 21 19 18 19 20 19 20 19 19 19 18 18 18 17 17 17 17 17 17 17 16 15 15 14 14 13 14 13 13 11 11 11 10 10 11 10 9 8 8 7 7 7 6 6 7 7 8 8 8 8
1 1 2 2 2 2 2 1 4 8 7 5 6 3 6 10 9 11 11 7 8 3 4 3 3 3 1 1 1 2 1 1 3 3 6 4 12 11 12 12 11 10 9 9 9 9 10 22 20 19 18 19 20 19 19 19 18 18 18 18 17 17 17 16 16 16 16 16 16 15 14 14 13 13 13 12 12 11 11 9 8 10 9 8 8 7 7 7 6 6 6 6 7 7 7 7 7
1 4 2 2 1 1 6 6 9 7 8 3 3 2 3 5 6 5 8 6 6 5 6 5 3 3 0 1 0 1 3 5 5 2 7 9 14 12 12 11 12 11 10 9 9 9 12 20 19 18 19 20 19 20 19 18 18 18 18 17 17 17 16 16 16 16 16 16 15 15 15 14 14 13 12 12 11 11 11 10 10 9 8 8 7 7 7 7 6 6 6 6 6 6 6 6 6
0 2 1 3 3 1 5 6 9 4 5 6 2 3 6 5 4 3 8 1 6 2 2 1 5 6 3 1 3 2 7 6 4 10 13 12 13 12 11 11 12 11 10 9 8 7 17 19 18 18 20 19 20 20 19 19 18 18 18 17 17 17 17 16 16 15 15 16 15 15 15 14 13 13 12 12 12 11 10 9 9 8 7 8 7 7 7 7 6 6 5 5 5 5 5 5 6
2 2 1 4 3 0 3 8 7 3 4 4 4 5 6 4 3 4 11 4 8 5 5 3 0 2 2 0 2 1 3 5 10 13 14 13 14 12 9 10 13 11 10 9 8 8 11 18 17 18 19 19 19 19 19 19 18 17 18 17 17 16 15 15 16 15 14 14 14 15 14 14 13 12 12 11 11 11 10 9 9 9 9 8 7 6 7 6 5 4 5 4 4 4 4 5 5
1 2 3 3 2 8 4 6 2 6 8 6 5 8 7 5 4 6 10 9 9 5 10 2 2 1 1 1 3 2 1 6 13 12 10 12 12 10 9 9 11 15 11 9 8 8 9 19 17 17 17 19 19 18 17 17 16 17 17 16 14 15 15 15 14 14 13 13 12 14 14 13 12 12 12 11 11 11 10 10 9 9 8 8 7 6 6 5 4 3 3 3 3 4 4 4 4
1 2 2 2 2 6 11 10 8 4 3 2 3 8 12 9 8 8 7 9 4 6 7 3 1 4 4 1 1 1 6 8 15 13 10 11 10 10 10 8 9 12 14 11 9 9 10 12 19 17 16 17 16 16 15 15 15 15 15 14 14 14 15 13 14 13 12 14 13 13 13 13 12 11 11 11 11 10 10 9 8 8 7 7 7 6 5 5 4 3 3 3 3 3 3 4 4
2 3 1 6 8 10 8 9 10 5 5 4 4 8 4 8 2 5 10 8 6 8 13 8 3 8 3 0 2 2 5 4 8 13 13 10 9 9 9 8 9 7 10 12 10 9 10 10 10 17 17 16 15 16 15 14 14 14 14 14 14 14 14 13 14 13 14 12 13 12 12 12 12 11 9 10 11 10 9 9 8 7 6 7 6 5 5 4 3 2 2 2 3 3 3 4 3
3 2 3 2 5 3 1 3 5 4 4 5 7 6 4 4 6 10 8 10 11 9 13 11 6 7 3 3 1 3 5 3 6 10 12 10 9 8 8 9 9 9 9 9 10 10 10 9 10 10 12 18 15 16 14 15 14 14 14 14 14 14 15 15 15 14 12 13 12 12 12 12 12 11 9 10 10 10 10 9 8 7 6 6 6 5 4 4 3 2 2 3 3 3 3 4 4
3 5 6 6 1 2 4 3 0 2 6 6 5 6 1 1 5 9 8 7 14 9 11 6 8 6 3 5 1 4 5 6 8 8 9 10 9 9 9 8 10 10 9 9 9 10 9 9 8 8 10 10 9 13 14 15 14 14 14 13 14 14 15 14 13 12 12 13 13 13 12 11 11 11 10 9 10 9 9 9 8 7 7 6 5 5 4 3 2 2 2 3 4 4 4 4 5
5 1 2 2 3 1 3 6 7 6 10 5 4 1 2 6 7 6 6 8 16 14 2 7 5 7 6 10 4 11 10 11 10 9 10 10 10 9 9 8 9 9 9 8 9 10 9 9 8 8 8 8 8 7 6 11 15 15 15 14 15 14 13 14 14 13 13 13 13 12 12 12 10 11 11 9 9 8 9 9 8 7 6 6 5 4 3 3 2 1 1 3 4 5 4 5 5
4 3 1 3 7 6 5 5 4 3 12 6 5 2 1 6 5 5 7 9 7 3 12 4 5 4 5 16 9 16 15 14 11 11 11 12 10 8 9 9 8 8 8 9 9 8 9 9 7 7 8 8 7 6 7 8 13 16 15 16 16 15 14 14 14 12 12 11 12 12 11 9 9 7 11 8 10 9 9 5 7 6 6 5 4 3 3 2 1 0 1 3 4 5 6 5 6
2 2 3 2 8 7 5 5 8 9 4 1 1 1 2 5 3 4 2 0 5 1 3 1 5 2 7 3 10 19 15 13 13 14 13 10 9 9 8 7 7 7 6 8 8 8 8 9 9 8 8 8 8 7 7 7 10 16 13 15 15 14 13 13 13 13 11 10 9 10 8 4 4 3 5 3 10 5 7 8 8 7 6 5 4 4 3 2 1 1 2 3 4 4 5 6 6
3 5 5 8 7 8 4 9 7 2 2 1 0 2 2 5 6 4 2 5 2 3 4 2 9 8 6 5 17 18 17 17 16 16 13 12 9 9 9 8 8 10 9 8 7 9 9 9 9 9 9 9 8 6 6 6 8 10 7 8 7 9 11 11 8 5 8 4 10 7 4 4 3 3 4 6 2 4 6 9 7 7 6 5 4 3 2 1 2 3 4 4 5 6 4 2 3
6 2 6 16 7 5 6 2 4 3 5 2 2 4 1 5 1 4 6 2 2 1 3 3 9 9 12 14 17 18 17 15 16 14 16 15 12 14 11 9 10 10 10 8 7 8 8 9 8 9 9 9 9 7 6 6 7 6 6 6 6 8 8 7 4 5 3 4 4 4 4 4 4 3 3 4 3 6 4 8 7 7 6 5 3 2 2 2 3 4 5 5 6 7 4 2 3
7 4 11 12 1 3 5 1 5 4 3 7 5 4 5 9 3 1 3 3 1 3 2 3 6 11 14 14 16 17 16 16 14 15 15 14 12 13 12 12 10 9 9 8 8 5 7 8 9 9 9 9 8 7 6 6 6 6 5 5 5 5 4 5 4 5 4 3 4 4 4 3 3 3 6 9 8 4 5 7 7 7 6 5 4 0 3 4 5 6 6 7 5 4 4 5 4
2 7 10 3 6 4 5 5 7 7 5 5 5 4 8 10 4 2 3 2 3 4 5 5 11 13 16 15 16 16 16 16 14 13 13 12 11 10 12 11 9 9 9 8 8 8 8 8 9 9 9 9 7 7 7 7 7 6 6 6 5 5 5 4 4 4 4 3 3 4 3 3 3 4 1 3 3 4 2 2 2 2 0 0 0 0 1 2 3 3 4 4 3 3 4 5 5
2 13 5 3 1 7 7 7 6 5 6 5 4 4 7 7 6 5 4 5 8 6 8 7 12 16 18 16 15 14 17 17 16 15 16 17 18 15 9 7 6 7 9 10 11 10 9 8 9 8 9 9 7 7 7 8 8 6 6 6 6 4 5 5 4 4 4 4 3 3 2 3 3 2 1 3 3 3 3 2 1 1 1 2 1 1 2 2 2 2 3 4 4 3 3 3 3
11 4 5 4 7 5 2 2 4 6 7 7 5 4 3 3 6 5 5 6 4 5 4 9 15 19 20 20 19 16 17 18 17 18 17 17 16 13 11 9 11 10 9 8 8 8 10 9 9 8 9 8 8 7 6 7 6 6 6 6 7 6 5 5 5 4 4 3 3 3 4 3 2 2 2 3 3 4 3 3 2 2 2 2 2 2 2 2 1 2 2 3 3 3 3 3 3
7 9 1 5 4 10 7 9 7 5 6 6 1 3 5 6 10 2 5 9 7 8 4 12 13 12 16 17 19 22 21 20 18 16 17 17 13 9 10 10 7 7 7 8 9 9 10 11 11 10 9 9 8 8 8 7 7 7 7 8 7 7 6 5 4 5 4 4 3 3 3 3 4 3 2 2 3 3 3 2 2 2 3 3 2 2 2 2 2 2 2 3 3 3 3 2 3
10 10 5 4 4 4 6 5 6 7 8 5 3 5 10 6 7 7 15 14 9 2 5 9 13 15 15 17 18 16 15 12 13 12 8 6 8 9 7 7 8 9 9 10 9 10 11 11 12 11 10 10 7 8 9 6 7 7 7 7 7 7 6 5 5 5 4 4 3 4 3 4 3 4 3 3 2 3 2 2 2 3 2 3 2 2 2 3 3 2 3 4 3 3 3 3 2
5 5 4 5 7 5 6 5 7 7 7 3 5 9 8 9 7 6 15 16 3 3 7 10 12 14 16 16 16 17 17 17 15 14 13 9 9 11 10 10 10 10 9 10 10 9 10 11 13 12 11 10 9 9 8 7 8 8 7 7 6 6 6 5 5 5 4 4 4 4 4 4 5 5 4 3 4 4 2 2 2 3 4 2 2 3 3 3 3 2 3 4 3 3 3 4 1
3 6 10 8 8 6 7 9 8 6 4 3 5 8 8 7 5 7 4 3 5 6 8 9 13 15 14 13 13 14 17 18 18 11 10 10 10 12 11 11 12 11 12 11 10 10 11 12 12 11 11 10 9 9 8 8 8 7 7 6 7 6 6 5 5 4 4 4 5 5 4 4 4 3 4 4 3 3 3 3 4 3 3 4 3 4 3 4 3 3 2 2 2 3 4 4 4
7 2 3 7 10 11 8 7 9 3 5 5 7 10 9 9 3 9 9 4 6 10 9 10 10 11 11 13 13 13 12 12 11 13 16 15 14 13 13 13 13 13 14 13 10 10 11 13 13 12 11 10 10 8 8 8 8 8 7 6 7 6 6 6 5 5 5 5 4 5 4 4 3 4 5 4 4 4 4 4 2 2 4 4 3 4 4 3 3 3 2 3 3 3 3 2 2
5 5 6 4 4 7 8 12 10 4 6 3 5 4 7 7 6 7 9 8 6 9 11 11 10 10 10 11 10 10 11 12 12 13 16 11 7 7 12 11 14 14 11 14 13 12 13 13 13 12 11 10 10 9 8 6 5 5 6 6 6 6 6 5 5 5 5 5 5 4 4 4 3 5 6 6 5 5 3 3 3 4 4 2 2 3 3 2 2 3 4 3 3 2 0 0 1
1 3 3 6 6 8 7 4 6 7 5 4 5 8 9 7 9 10 2 10 6 7 8 9 8 9 10 11 11 10 9 11 13 14 10 6 7 7 8 8 11 12 11 10 14 15 13 10 9 9 10 11 11 9 8 7 6 5 5 5 6 6 6 6 6 5 6 5 5 5 5 5 4 4 6 5 5 4 4 4 3 4 4 4 3 3 3 3 1 1 2 3 3 2 2 2 2
6 3 3 6 4 5 4 5 5 8 5 7 7 10 8 6 9 11 2 7 12 10 10 10 8 9 9 10 10 11 12 14 12 5 7 8 6 6 6 4 7 8 9 11 15 15 12 11 10 9 11 11 11 10 10 9 7 7 6 6 5 6 5 6 6 6 6 6 5 5 5 5 4 4 4 6 5 5 5 5 5 4 4 3 3 1 1 1 1 0 1 3 3 2 1 1 1
2 4 10 3 9 4 3 6 9 10 1 9 8 10 10 8 9 9 5 7 6 9 10 11 10 9 10 10 10 9 8 5 10 12 11 11 8 8 9 8 5 6 9 11 10 11 12 11 11 10 12 12 11 11 10 9 9 8 6 5 5 5 5 6 6 6 6 5 5 5 5 5 4 4 4 4 5 4 4 3 2 1 1 2 1 1 1 1 0 1 0 1 2 3 3 3 2
3 9 0 7 4 4 2 6 7 10 6 3 14 6 1 4 9 9 3 8 7 7 9 9 9 10 10 10 10 9 9 12 12 12 14 14 11 9 8 8 8 1 3 3 7 9 10 9 10 11 11 12 11 11 10 8 8 7 7 6 6 6 6 6 6 5 5 5 5 5 5 5 4 4 4 4 5 3 3 2 1 2 2 3 2 1 1 0 1 2 3 1 0 2 3 3 4
6 1 4 2 7 4 7 4 4 7 9 5 6 9 4 2 5 9 5 8 8 6 8 9 9 8 8 8 8 8 9 11 12 12 12 13 14 16 11 12 15 10 4 3 9 9 2 3 4 6 8 9 9 10 10 9 8 8 6 6 6 6 5 5 5 5 5 6 6 5 5 4 4 4 4 4 3 3 3 3 2 2 3 3 2 1 1 2 2 2 3 2 2 0 2 3 4
5 4 5 4 0 5 7 7 4 6 5 10 5 7 6 8 6 6 7 5 9 11 10 10 9 8 8 8 9 10 9 9 8 8 11 10 13 14 10 12 12 15 17 17 8 1 6 3 1 3 7 6 7 8 8 8 8 6 5 6 6 5 4 4 5 5 5 5 5 5 5 5 3 3 3 3 4 3 3 2 2 2 3 3 2 1 1 1 2 3 1 2 1 1 2 2 3
8 6 6 4 6 5 6 5 4 9 5 6 7 5 5 9 8 7 6 4 7 8 4 2 5 8 9 9 9 11 9 8 7 9 10 10 11 12 11 11 12 15 17 16 16 10 1 3 4 2 5 7 6 7 7 7 7 7 7 5 6 5 5 5 3 5 5 5 4 4 4 4 1 2 3 3 3 3 3 2 3 3 3 3 2 0 0 1 0 0 0 0 2 2 0 1 1
6 3 4 6 6 4 4 3 5 2 4 8 6 5 7 8 8 9 8 4 5 6 5 6 8 10 10 10 11 10 10 9 8 9 8 9 12 12 12 10 11 12 9 8 14 13 6 1 4 6 6 7 8 8 8 9 9 7 5 7 7 5 6 5 5 3 4 3 3 3 3 3 2 0 1 3 3 2 2 2 3 3 3 4 3 2 2 1 0 0 0 0 0 1 1 1 1
4 5 4 4 4 7 4 4 4 2 4 1 4 5 7 10 8 9 8 5 6 6 5 7 11 11 10 14 13 11 8 7 10 8 8 10 10 11 13 13 13 14 11 10 12 20 19 13 9 5 5 6 7 6 7 8 7 8 8 7 5 6 6 6 4 3 3 3 3 3 2 2 1 0 1 2 3 3 3 3 3 3 3 3 3 2 2 2 1 0 1 1 0 0 0 1 3
4 4 5 4 6 2 7 4 6 2 3 7 2 2 6 8 9 8 7 9 6 7 10 9 13 11 9 11 10 12 11 12 11 11 12 11 13 13 11 12 14 16 17 14 10 8 16 17 13 9 9 7 7 7 7 7 5 6 7 5 8 4 0 1 3 3 3 3 3 2 2 2 0 0 1 2 3 2 3 3 3 4 3 4 4 2 2 2 2 2 2 2 1 1 0 1 2
8 3 4 7 4 5 5 6 4 2 5 1 4 5 7 7 6 7 8 6 5 4 5 8 14 15 14 16 17 15 15 16 17 15 15 13 14 14 12 12 13 12 14 13 13 15 14 14 13 12 10 9 9 8 8 5 6 6 6 8 6 4 4 4 4 4 3 3 2 1 1 2 1 1 1 3 3 2 3 3 4 3 3 3 5 4 2 2 1 2 2 1 1 1 2 1 1
4 6 4 3 3 3 5 3 2 2 1 1 1 4 7 5 7 9 7 3 4 3 5 5 4 10 15 14 12 14 18 17 16 15 12 14 15 15 16 14 13 14 15 16 16 16 14 18 17 15 13 12 11 10 8 8 8 8 8 7 6 7 5 3 4 3 3 3 3 2 3 2 2 2 1 3 3 3 2 3 4 4 4 2 3 3 3 1 1 1 2 2 1 1 2 1 1
6 5 7 6 3 5 4 2 3 5 3 1 4 2 6 5 7 11 10 2 1 3 8 9 9 10 10 13 14 11 9 13 18 20 17 15 15 12 12 13 14 14 15 16 16 15 14 15 16 15 12 10 11 10 10 10 9 10 9 9 7 4 5 5 7 8 5 5 5 3 2 3 3 2 2 2 3 3 3 3 4 5 4 3 2 3 2 2 2 2 1 2 2 1 2 1 1
8 8 9 6 6 4 4 2 1 0 2 3 1 10 5 5 5 6 8 6 5 1 7 10 10 12 13 13 13 13 14 12 10 11 12 13 14 15 14 14 15 16 16 14 14 14 12 12 15 16 14 12 10 10 11 10 9 9 11 10 9 8 8 4 2 3 6 4 3 3 3 3 3 3 2 3 4 5 5 4 4 4 4 3 3 4 4 3 3 2 1 3 2 3 2 1 1
8 4 12 7 4 6 4 2 4 3 2 6 0 2 2 5 8 6 9 6 4 4 5 9 10 13 16 15 13 14 14 17 16 16 17 17 17 18 18 17 15 16 14 13 14 13 14 13 14 15 13 12 11 11 11 10 10 8 8 7 7 7 7 7 4 4 3 3 4 2 2 3 3 4 5 4 5 6 5 5 4 5 5 3 3 4 3 2 2 2 2 2 2 2 2 1 1
2 5 11 10 10 9 3 2 1 1 2 8 2 0 1 3 9 5 2 2 3 6 9 11 11 14 17 17 14 16 17 17 17 16 17 18 18 18 16 16 16 12 12 14 14 12 10 8 9 11 11 11 10 11 10 9 9 9 8 7 7 4 4 5 4 3 4 4 5 2 3 5 6 4 3 6 5 5 5 5 5 5 5 4 3 4 3 3 3 3 3 4 3 2 1 1 1
3 6 7 5 4 4 4 3 3 2 2 9 5 2 2 5 7 8 2 2 6 9 12 13 13 14 15 14 10 12 11 11 13 14 15 16 16 16 16 14 12 13 12 9 8 7 8 7 7 8 8 8 9 10 9 8 8 8 8 7 8 6 5 4 4 5 4 4 5 4 5 6 5 5 4 5 5 4 4 4 5 5 5 4 4 3 3 4 3 3 3 3 3 4 2 1 1
3 5 6 4 2 1 0 2 3 1 6 12 5 5 3 4 7 7 3 7 9 7 3 4 3 7 9 10 9 12 14 14 13 12 12 14 14 14 11 12 14 9 7 8 8 8 7 8 8 8 6 5 7 9 9 9 8 7 8 8 9 8 7 7 6 4 4 4 5 5 6 6 4 5 5 4 4 4 4 4 6 5 5 4 4 4 4 3 2 3 2 3 4 4 3 3 2
5 4 4 3 5 1 2 1 1 4 8 3 4 7 8 5 4 8 9 5 5 15 16 16 14 15 15 14 13 12 13 13 11 12 13 12 11 10 10 11 10 9 8 9 8 8 8 7 8 9 7 7 6 7 8 8 7 6 6 8 8 8 9 8 8 8 7 6 6 7 6 6 4 4 4 5 3 3 5 5 5 5 5 5 5 3 3 2 2 2 4 4 3 3 3 3 3
9 5 7 10 3 3 5 2 7 10 6 2 5 8 2 5 9 12 9 8 7 11 12 17 18 16 14 13 16 15 15 12 13 13 12 12 13 13 12 12 10 11 11 12 11 9 8 8 9 9 8 7 7 7 7 7 7 7 7 7 7 7 8 8 8 8 7 7 7 7 7 6 5 5 4 5 3 3 4 5 5 6 5 4 3 3 3 3 3 3 3 3 4 5 4 4 6
11 9 10 10 7 8 10 6 1 2 3 6 1 3 4 3 7 11 15 11 12 13 10 14 18 19 18 16 15 13 12 13 14 13 13 13 13 13 13 13 12 10 10 11 11 10 8 8 9 10 9 7 7 7 7 7 6 6 6 6 7 7 7 7 6 8 7 6 6 8 7 6 5 5 5 4 3 3 3 4 5 5 4 3 4 4 3 3 3 4 3 4 5 5 6 7 7
11 4 7 8 6 4 6 4 8 7 5 4 2 4 4 5 8 2 9 12 10 11 5 4 7 7 9 10 10 9 9 10 11 12 14 14 14 14 13 12 11 10 10 11 10 9 8 9 10 10 10 9 9 8 7 7 6 5 5 5 6 5 6 5 4 5 7 7 5 8 7 5 6 4 5 4 3 4 4 4 4 5 4 4 3 3 4 3 3 3 4 5 6 5 5 7 7
10 5 5 4 13 6 3 5 5 4 2 1 2 5 5 6 2 4 3 3 5 5 7 8 8 8 10 9 12 14 14 13 12 12 13 13 13 12 11 11 10 9 10 9 10 9 8 9 10 11 11 10 9 8 7 7 6 6 5 6 5 5 4 5 5 5 4 5 6 8 7 5 5 5 4 5 3 4 4 4 4 4 3 4 3 4 4 4 4 5 5 6 6 4 7 8 6
8 8 13 11 4 1 3 1 1 2 3 6 0 3 3 7 3 5 7 0 2 5 6 8 8 9 10 12 13 13 13 12 13 13 12 13 11 11 11 10 10 9 9 10 10 9 8 10 10 11 11 10 9 8 8 7 7 7 5 6 6 6 6 7 7 6 6 5 7 7 7 6 5 5 5 4 5 3 4 4 4 4 4 3 4 4 4 4 5 5 5 5 5 5 8 8 6
6 10 8 4 3 3 2 2 2 2 5 4 1 7 3 2 6 5 3 1 2 5 5 6 7 9 12 13 14 14 14 14 12 9 8 9 11 12 10 9 9 9 9 9 10 8 7 8 10 13 13 13 10 10 9 8 8 7 7 6 6 6 7 6 7 8 7 7 7 7 7 6 5 5 5 4 4 4 3 4 4 4 4 4 5 5 5 5 5 5 5 6 5 6 7 6 6
12 9 6 9 6 8 2 2 1 1 1 2 0 1 3 6 4 1 1 3 4 4 5 8 9 11 13 12 12 10 8 8 10 12 11 10 11 10 9 8 9 9 8 8 9 8 8 8 9 11 12 11 11 9 9 7 7 6 6 7 7 7 6 7 7 7 7 8 8 7 7 6 6 5 6 5 4 4 3 3 4 4 4 5 5 6 6 6 5 5 5 5 5 6 7 7 6
3 10 10 6 4 2 3 6 3 6 3 3 3 1 6 5 5 8 5 8 5 5 6 10 14 15 14 13 14 14 14 14 13 12 12 10 9 10 9 9 11 11 10 9 10 9 10 9 9 10 10 9 9 8 6 6 6 7 7 7 6 7 7 8 8 9 8 8 8 8 8 7 6 5 5 4 4 4 3 4 4 4 4 5 6 6 6 6 5 4 4 4 5 7 8 6 6
6 9 8 4 2 1 5 1 4 4 4 4 4 1 4 6 5 6 8 10 10 12 13 11 11 10 10 12 14 15 15 14 13 12 11 10 9 10 8 9 10 10 9 9 9 10 9 9 9 12 13 12 11 10 11 9 6 7 9 9 8 8 8 7 8 8 9 8 8 7 7 6 6 6 5 5 5 4 4 4 4 4 5 5 5 6 5 5 5 4 4 5 6 6 6 5 5
6 7 6 7 7 4 7 6 1 2 3 2 4 5 6 9 2 4 4 8 10 12 13 13 12 12 13 11 11 11 13 11 9 7 6 8 9 10 9 9 10 10 10 10 10 9 10 10 9 11 12 11 11 11 10 9 8 7 9 9 8 7 8 7 9 9 9 8 7 7 7 6 7 5 6 6 5 4 4 4 4 5 6 5 6 6 4 5 4 4 6 5 4 5 5 5 5
Wind_Direction
333 326 281 334 75 109 104 11 236 297 96 232 208 174 236 250 263 327 278 33 310 251 160 23 36 231 169 200 196 193 274 163 192 136 215 254 126 140 123 123 132 135 142 148 153 150 148 151 151 150 151 151 150 147 144 142 140 139 136 134 132 131 130 128 127 125 124 122 120 121 121 120 118 115 114 112 110 109 108 107 108 107 106 102 102 100 97 95 96 95 95 95 95 95 94 94 92
295 294 318 285 122 88 230 140 107 313 19 299 238 144 225 244 318 233 253 245 196 256 344 61 320 138 13 105 100 121 328 38 308 222 340 253 101 105 131 135 142 141 144 149 152 146 147 151 150 151 152 152 151 148 145 143 142 140 139 135 134 132 132 130 128 127 126 123 123 124 123 122 121 119 116 113 111 110 110 110 110 111 106 102 100 98 98 96 95 96 97 97 98 98 97 95 89
309 341 9 33 25 77 104 43 250 179 205 245 232 205 282 234 227 246 234 250 224 246 5 244 287 29 6 305 143 165 236 89 82 119 61 125 127 178 146 142 143 143 144 148 148 148 148 151 150 151 152 152 151 150 147 145 143 141 139 137 136 134 133 131 129 127 127 126 125 125 125 124 122 121 116 115 115 116 112 113 112 107 102 100 96 94 91 90 90 92 95 95 100 105 102 98 93
307 28 126 73 221 19 100 38 160 161 216 234 263 260 217 214 231 233 241 255 262 211 279 321 352 272 184 336 248 77 236 269 156 151 147 191 197 136 143 142 141 140 141 146 149 148 149 154 150 151 152 152 152 151 148 146 144 143 140 138 137 136 135 132 129 129 130 129 126 127 126 126 126 123 121 119 118 115 115 116 117 112 106 98 90 86 85 83 85 89 93 97 97 97 98 97 92
18 323 86 106 119 233 132 206 175 150 232 143 228 207 215 220 234 237 252 256 271 248 143 177 83 340 132 145 246 175 245 135 119 181 126 130 108 137 137 137 138 141 145 145 147 149 153 153 150 151 151 152 152 151 150 147 145 143 142 141 139 138 136 133 132 131 132 130 129 129 129 127 129 128 125 123 121 120 119 117 120 117 106 96 88 81 78 75 75 82 93 100 100 95 94 90 82
45 49 350 99 211 187 51 278 235 212 225 146 232 225 211 220 229 238 257 275 276 238 175 151 182 220 311 273 184 258 187 121 172 174 151 175 135 141 138 136 137 140 140 144 149 150 155 154 152 150 150 152 153 152 150 147 146 144 143 142 141 139 137 135 134 134 133 133 133 132 130 132 131 131 129 129 126 125 121 114 108 114 113 106 95 88 82 78 76 81 91 100 98 95 93 89 83
237 44 354 33 337 52 208 227 235 224 252 181 221 238 223 242 245 287 283 321 270 264 184 196 128 77 356 240 37 290 332 138 133 198 136 145 131 139 141 139 137 137 141 145 150 153 155 153 152 150 152 153 153 152 150 148 146 145 145 143 142 140 138 137 137 136 135 137 137 136 134 132 135 134 132 132 132 128 123 118 124 123 120 111 89 83 79 75 70 71 79 85 89 91 88 87 85
131 121 243 117 221 79 239 231 246 161 270 215 225 214 256 243 264 281 269 223 286 338 332 132 187 165 225 190 174 286 9 356 92 98 113 133 132 137 143 141 135 137 140 146 153 154 154 150 151 151 152 153 153 152 151 149 148 147 146 144 143 141 140 139 138 137 138 139 140 139 137 133 134 133 134 134 135 130 126 130 140 123 106 99 86 80 77 74 68 66 72 83 87 88 83 78 76
350 86 356 80 222 331 288 235 253 212 286 274 261 251 278 265 268 271 281 262 305 291 289 171 239 174 265 29 188 299 38 53 88 110 124 131 136 141 142 145 141 140 142 145 150 155 147 152 148 151 152 153 153 152 151 150 149 148 147 145 144 141 141 141 139 138 139 140 140 140 139 137 136 136 135 137 137 135 135 140 123 97 98 96 91 85 82 76 70 67 67 72 81 77 68 62 62
26 99 231 170 125 223 247 269 231 225 218 236 239 264 264 265 249 230 258 279 246 300 275 167 110 172 104 194 320 348 73 109 108 102 122 132 133 134 136 145 146 140 142 145 152 147 147 152 149 152 152 153 152 152 151 150 150 149 147 145 142 140 141 140 138 138 137 137 138 140 141 141 141 139 139 139 141 141 142 143 115 107 101 98 92 86 82 79 73 64 60 59 54 52 53 54 49
215 4 146 147 217 226 223 243 239 283 264 298 289 240 238 252 249 266 251 263 278 262 274 143 209 150 134 267 214 273 103 135 124 131 139 137 134 134 136 142 144 143 143 149 148 145 148 148 151 151 151 150 150 149 148 150 147 147 144 141 140 140 139 137 137 135 136 139 140 140 141 141 143 144 146 146 143 147 150 148 131 112 106 104 95 90 83 76 68 50 35 32 28 27 24 26 28
181 195 151 208 213 198 222 227 240 260 293 310 279 250 218 222 249 262 260 264 261 249 250 146 229 147 117 180 292 53 115 123 135 136 137 136 132 134 135 136 139 138 140 142 141 146 145 146 148 154 149 148 148 147 148 148 145 142 141 141 140 139 137 138 140 139 140 141 143 143 143 144 147 149 151 153 148 149 149 147 139 130 125 111 105 96 89 84 72 49 11 5 12 8 4 4 7
167 148 120 94 226 198 190 247 257 250 285 235 231 262 197 189 215 235 253 242 257 257 270 196 143 130 167 178 285 120 145 133 137 136 134 133 132 128 128 132 135 135 135 135 141 142 142 141 143 150 148 149 146 148 148 147 142 141 140 141 140 138 139 141 142 143 144 144 145 147 149 150 151 153 154 157 154 152 152 149 145 145 140 126 115 102 92 84 76 48 5 346 344 352 351 349 352
162 181 136 227 52 208 179 236 226 233 253 234 226 248 104 162 226 228 240 265 256 235 244 167 148 125 100 100 203 210 184 145 143 134 127 124 124 127 130 131 133 132 132 139 140 141 138 137 139 139 146 143 146 149 148 144 142 140 141 140 140 139 141 142 143 143 147 147 147 148 149 153 157 158 158 157 154 152 152 149 149 149 146 134 125 117 106 94 81 52 1 339 330 337 338 337 345
202 170 101 207 273 140 223 201 203 218 258 196 237 192 195 243 252 259 207 242 262 239 1 140 148 139 189 175 229 207 166 151 142 130 121 117 119 123 125 129 129 130 135 137 140 140 140 137 135 139 136 137 142 139 145 143 143 144 143 141 143 142 142 145 146 146 146 145 141 138 139 142 151 160 161 159 159 154 157 154 153 154 151 142 133 130 122 110 91 50 345 329 325 326 330 332 336
191 126 118 205 235 188 256 205 159 163 255 183 243 214 260 267 231 241 250 201 260 29 150 179 198 184 166 188 210 162 143 142 139 124 121 118 115 113 123 128 133 134 137 141 144 143 141 136 138 134 133 137 139 139 141 146 147 146 145 147 146 144 146 146 147 145 145 141 137 136 138 140 141 151 162 163 165 159 164 147 159 160 159 146 144 148 152 152 157 264 326 317 319 319 324 332 333
109 152 243 197 248 192 223 186 150 218 264 180 261 323 295 287 260 208 231 192 225 242 359 322 163 76 168 172 100 123 131 132 129 129 124 125 128 129 131 137 138 140 144 149 150 147 142 142 139 136 138 138 141 142 141 142 149 149 147 146 147 147 145 146 146 145 142 141 135 138 132 103 110 133 149 159 167 164 166 160 171 167 168 162 168 177 178 196 254 299 313 313 315 312 318 331 332
125 203 198 240 215 205 192 198 186 199 266 285 117 191 207 281 318 290 318 11 22 5 53 10 41 42 86 110 118 127 135 140 145 141 144 139 142 139 148 152 156 158 157 153 154 148 145 144 141 138 142 144 144 143 142 144 149 147 143 144 143 149 148 147 146 138 141 128 141 132 114 118 109 119 138 160 144 165 175 177 175 177 179 175 180 198 216 246 291 305 313 313 309 307 318 331 311
197 175 175 230 186 228 141 197 227 266 258 259 304 329 2 262 24 299 327 314 34 318 12 44 71 72 91 106 123 132 142 146 152 149 150 151 156 154 158 160 169 161 159 152 149 152 145 141 141 138 142 145 144 142 144 146 142 138 141 137 141 143 149 140 131 134 110 129 117 124 125 120 133 143 146 147 139 164 174 179 180 182 187 189 190 209 254 273 288 300 302 304 304 315 337 320 308
219 161 219 227 173 238 264 209 241 233 302 296 323 310 343 288 340 288 325 288 15 234 169 73 125 135 129 130 135 143 147 153 155 154 154 156 155 161 164 170 171 163 148 146 140 137 143 146 142 143 148 148 149 147 145 145 142 140 137 136 134 135 127 129 125 122 132 129 133 127 130 139 141 152 174 162 164 157 177 177 182 187 195 202 206 279 328 322 309 314 323 324 340 343 328 324 331
200 208 223 202 214 266 247 227 249 269 269 284 285 305 312 294 303 316 252 299 269 257 223 188 163 146 139 144 146 151 152 156 158 157 154 157 165 175 175 169 159 149 144 136 140 148 153 149 141 147 145 153 151 146 150 149 146 144 141 139 138 130 126 127 126 130 136 135 138 136 137 148 154 176 219 146 128 145 159 170 198 186 200 276 289 16 309 298 341 335 329 330 335 337 330 325 337
154 227 214 227 71 213 248 231 239 238 261 268 289 315 276 305 307 294 286 242 248 216 214 197 168 153 150 152 157 154 160 160 163 163 166 168 174 179 165 136 130 142 148 152 156 147 150 149 144 150 147 157 158 150 154 151 149 149 149 146 142 136 138 136 134 139 140 146 144 141 138 144 164 188 160 137 141 142 158 174 194 187 212 227 255 225 277 315 327 331 321 317 315 326 316 315 319
237 222 214 181 231 244 218 217 223 219 251 255 275 244 283 308 284 270 274 234 237 217 262 151 167 167 164 152 153 162 165 167 168 172 171 176 180 174 159 155 156 159 156 148 144 145 147 151 148 157 150 158 157 150 147 151 153 150 149 152 151 150 147 145 146 148 155 151 150 155 153 166 188 195 176 155 152 157 168 172 188 188 203 234 243 222 270 300 306 299 299 285 285 291 299 292 287
232 236 166 235 183 237 257 261 277 269 238 253 196 322 286 295 301 273 309 275 257 302 236 166 163 148 143 153 165 167 172 172 176 177 182 181 169 147 154 155 148 132 139 144 150 153 155 156 156 162 158 164 156 151 153 155 154 153 155 161 158 157 153 162 152 166 155 156 164 179 172 175 184 199 203 177 178 161 181 178 171 189 206 220 218 206 242 279 286 276 283 289 289 290 294 275 258
220 240 235 257 243 238 250 250 260 270 266 256 256 267 255 255 255 310 279 277 298 323 132 138 150 154 160 160 171 168 162 161 170 176 173 151 148 148 146 145 144 145 146 153 155 157 162 160 164 163 166 166 159 156 154 157 154 154 158 163 154 169 161 166 164 159 164 164 173 187 182 182 189 196 204 197 154 193 189 168 184 204 211 227 196 222 211 251 279 295 305 302 298 295 288 284 248
218 236 248 232 244 260 258 275 253 254 271 238 264 252 261 252 279 275 263 272 277 132 120 143 147 155 166 171 165 165 170 174 170 175 173 155 152 152 160 156 151 151 150 151 159 164 161 161 168 169 171 167 163 159 157 156 159 161 163 165 156 166 162 162 162 164 167 163 182 192 199 183 189 189 202 183 177 197 191 182 195 223 224 231 201 230 220 214 255 307 304 299 310 313 320 297 313
187 196 228 240 249 249 257 251 263 252 244 236 231 268 272 262 157 272 290 283 154 121 131 153 155 167 171 165 170 172 169 175 177 160 155 164 163 167 162 158 156 152 151 159 166 167 166 166 170 172 170 169 165 164 160 160 162 165 166 161 161 168 160 160 167 165 162 178 190 191 198 188 187 182 188 190 196 193 195 187 211 205 234 240 220 233 212 211 208 223 237 259 281 298 294 302 325
283 200 292 249 244 239 243 252 255 265 275 211 218 257 255 257 177 234 257 150 159 141 149 159 170 163 166 171 171 174 177 172 163 171 174 172 178 173 166 163 157 153 160 165 167 167 169 171 169 173 170 167 166 162 158 159 166 167 167 159 167 168 157 167 166 167 177 189 189 191 192 196 191 195 185 187 192 194 203 207 211 197 233 246 212 207 198 206 210 219 215 211 217 207 245 272 263
256 287 282 274 264 257 235 237 249 206 256 169 183 275 271 253 233 231 232 159 171 155 163 169 168 167 165 166 169 174 179 172 175 185 192 179 156 163 164 166 158 159 167 164 164 166 173 173 170 172 167 164 166 164 159 157 155 164 166 167 170 167 165 163 170 178 185 191 185 181 188 195 201 189 193 188 190 193 191 198 207 206 208 211 195 195 171 176 187 211 204 204 189 180 203 273 243
223 246 212 280 282 268 234 219 237 232 234 181 124 261 236 247 245 253 209 159 151 151 171 175 168 164 167 166 172 175 171 174 189 197 179 148 144 149 163 173 165 161 159 166 164 173 177 172 164 163 169 169 169 165 157 152 159 164 170 173 173 169 170 167 180 185 188 190 182 181 185 192 185 183 171 177 172 168 174 180 189 197 191 183 171 173 156 177 152 53 8 18 4 37 5 317 2
191 228 152 217 219 255 178 188 198 228 179 190 162 246 255 259 269 258 221 172 158 168 180 181 166 166 172 172 172 178 183 188 189 147 70 55 96 132 155 169 168 157 156 170 178 176 173 165 161 168 171 172 170 169 165 161 156 166 174 179 175 175 171 175 184 189 192 194 180 182 176 175 178 156 153 153 158 158 164 175 187 186 181 173 125 145 124 89 82 359 46 15 337 348 329 295 345
214 164 222 190 200 294 256 203 194 211 214 171 159 246 246 245 254 258 230 168 198 172 182 180 171 168 171 172 176 180 171 95 71 75 80 73 54 59 17 341 172 155 175 175 178 175 171 170 171 167 171 169 173 172 167 164 161 167 174 176 172 178 173 182 189 191 193 183 174 168 173 169 164 157 148 148 144 163 153 154 211 171 170 110 113 187 163 183 98 11 48 113 2 322 356 327 349
257 207 10 200 151 240 314 244 199 196 215 188 182 226 262 268 237 250 199 170 194 194 187 182 174 170 170 172 175 169 107 97 104 119 131 133 130 127 134 84 4 126 134 212 195 183 170 171 171 168 170 172 172 168 163 160 157 166 172 174 177 174 179 188 190 185 177 172 173 172 170 165 161 160 159 160 151 152 138 155 224 200 173 149 165 156 154 94 66 23 332 28 123 265 331 316 318
234 117 184 199 176 172 227 302 249 197 186 231 212 216 220 253 260 233 208 176 178 202 196 187 178 170 163 161 163 151 125 137 151 149 148 142 146 161 157 138 132 110 124 346 353 341 315 181 174 168 172 174 169 166 165 159 160 164 162 171 172 173 178 180 176 169 173 174 165 166 162 158 161 164 167 163 141 152 161 163 210 182 137 140 145 151 77 57 80 71 359 344 59 100 314 304 305
154 144 156 253 296 192 192 186 251 155 201 213 198 209 225 239 263 255 233 196 182 198 197 188 175 154 147 157 149 131 147 152 154 164 163 159 158 154 136 129 124 143 163 174 150 287 327 304 254 194 173 169 172 168 162 149 150 151 144 151 153 149 140 151 158 161 168 163 166 163 154 155 162 171 173 157 137 151 140 160 141 136 137 132 126 81 25 11 45 59 80 307 337 214 223 257 279
180 160 171 155 187 228 207 222 264 180 199 205 207 196 212 244 255 265 272 184 185 217 215 164 134 140 151 153 145 153 153 155 160 173 178 160 150 148 145 142 155 171 178 170 150 129 311 293 283 238 177 172 176 168 159 152 149 150 145 130 137 151 145 144 154 151 152 162 167 156 150 137 103 169 176 158 150 152 144 124 118 136 125 119 107 92 17 67 67 35 352 343 335 335 344 312 294
155 172 139 193 186 258 267 268 255 183 206 223 213 195 214 232 232 247 247 231 194 202 157 160 157 158 162 152 156 150 156 159 158 166 161 159 156 153 144 140 162 180 176 157 143 133 137 251 288 242 195 178 177 173 169 161 159 150 137 159 157 158 155 152 146 140 155 166 157 149 148 110 67 74 188 154 157 147 145 150 106 123 131 132 126 160 168 142 197 171 252 6 169 13 331 334 318
158 176 189 219 184 214 236 232 258 230 176 308 167 196 225 233 235 232 244 251 239 211 174 158 168 172 163 160 156 152 138 144 152 154 160 154 161 160 158 161 165 169 176 169 180 164 160 168 211 224 245 188 179 185 176 173 174 170 158 155 138 147 146 156 148 155 164 154 144 144 137 101 73 63 229 186 159 160 155 132 126 142 135 121 131 144 135 129 140 128 183 86 358 101 326 348 335
214 163 180 209 245 240 283 273 281 279 139 257 253 232 250 247 243 244 219 217 225 210 185 175 165 168 155 153 143 142 150 163 165 160 161 165 166 166 170 170 175 175 169 171 184 178 157 168 182 181 201 193 178 178 178 174 157 138 135 135 142 122 19 121 126 134 142 144 145 138 140 120 117 249 171 211 169 182 163 145 144 150 136 131 113 106 119 102 96 107 93 107 19 14 330 306 8
216 173 166 205 223 169 256 275 278 224 159 210 235 237 278 292 281 262 252 213 227 226 185 175 173 167 160 166 165 160 162 166 173 170 166 171 171 171 176 176 176 174 169 170 176 175 176 178 170 177 184 187 175 178 175 157 129 107 98 120 109 112 151 118 91 96 109 122 147 133 114 135 182 215 180 216 184 177 163 147 130 122 136 140 143 135 124 104 53 71 98 78 121 32 4 316 30
196 193 190 183 224 209 158 239 301 298 347 155 115 344 307 287 295 297 287 245 213 108 132 171 211 176 171 166 160 164 167 169 167 167 171 173 175 181 180 177 172 176 178 176 182 181 186 179 173 172 176 182 176 169 159 141 119 102 100 84 92 83 63 83 116 106 133 165 133 145 200 174 200 203 199 224 149 133 164 138 109 111 110 106 121 127 129 118 83 36 105 94 91 138 14 307 312
216 222 190 196 197 226 264 318 3 27 333 311 140 322 263 267 250 254 264 312 179 186 153 181 170 150 159 164 171 183 173 172 170 175 178 176 173 179 186 177 178 180 182 183 185 188 195 180 167 165 169 173 172 162 156 149 146 139 138 136 140 141 151 158 177 177 171 170 181 171 161 181 186 180 193 196 134 136 99 86 96 101 97 90 89 95 107 100 86 94 165 141 125 157 146 94 330
191 225 169 189 202 215 249 267 82 337 186 277 107 208 270 316 284 256 256 244 227 208 181 180 167 164 173 175 170 175 170 173 181 173 172 173 183 182 183 185 187 185 189 181 183 190 198 182 168 166 169 170 164 159 161 152 149 154 158 162 164 169 165 189 161 154 159 161 142 151 184 182 167 151 142 142 118 110 106 104 111 106 101 98 100 100 85 87 90 103 109 105 126 117 98 94 268
222 147 162 179 199 212 209 155 165 229 247 283 84 138 194 297 283 241 252 259 215 177 195 182 177 173 180 180 181 177 179 178 173 178 184 183 183 185 185 189 189 193 183 181 186 187 191 189 174 169 167 165 164 159 164 161 155 158 157 153 153 161 169 170 168 159 141 144 132 134 128 100 102 110 125 121 117 113 114 109 107 104 98 86 87 80 94 87 73 36 57 83 96 108 130 131 286
206 157 148 184 205 222 209 154 160 220 360 281 1 36 26 264 267 274 177 151 206 205 191 196 187 186 186 185 186 186 182 181 176 179 185 185 187 192 188 186 195 189 182 184 185 183 184 191 178 164 163 160 158 160 159 163 155 156 153 148 150 149 132 131 133 130 137 125 103 91 99 89 85 89 119 118 111 113 113 113 103 94 89 83 85 83 72 77 81 73 46 46 46 57 88 137 131
245 143 148 159 190 220 204 194 177 264 221 260 241 181 183 281 275 306 6 230 206 205 203 201 192 186 190 190 185 185 181 186 197 191 183 185 189 191 193 190 186 193 188 177 167 163 173 174 178 166 157 157 155 159 153 146 144 142 144 151 147 135 122 116 130 138 136 120 117 105 102 98 106 105 97 104 105 102 104 102 97 95 97 94 86 91 86 70 58 66 69 81 78 55 43 96 111
160 125 160 205 197 161 19 137 151 104 240 243 215 188 169 272 270 249 166 214 194 176 206 223 181 189 198 198 183 182 184 189 191 189 190 188 190 192 183 190 198 188 173 167 167 169 169 171 167 160 149 140 153 153 151 146 143 148 149 153 151 146 146 144 139 129 117 119 125 118 111 105 110 115 107 88 99 110 104 100 101 97 92 88 84 77 71 80 68 74 64 65 60 57 18 22 27
154 172 152 143 286 51 327 323 71 202 251 262 198 183 153 207 287 277 228 234 223 172 189 189 186 190 189 184 186 192 191 190 184 185 190 185 189 191 189 197 192 185 169 169 168 166 165 163 162 155 146 144 148 146 141 139 142 146 147 150 150 153 154 160 158 156 156 151 143 123 112 109 112 103 103 103 86 87 96 92 96 94 89 87 83 85 77 70 66 61 52 54 47 45 41 49 47
194 146 146 166 222 140 251 122 222 216 212 239 186 140 66 243 223 242 256 224 216 214 188 180 184 189 191 186 186 188 190 182 185 191 183 187 189 187 191 194 188 183 181 173 170 167 159 157 163 157 150 147 146 147 146 141 142 147 148 149 151 156 163 163 160 155 159 153 144 127 124 126 125 110 107 105 103 104 108 106 101 99 94 92 98 83 65 54 53 61 56 53 48 48 44 51 59
192 185 172 173 171 189 217 214 16 331 278 250 172 214 237 234 285 238 242 239 206 202 197 184 182 185 187 186 182 182 185 187 190 188 188 190 189 191 189 188 188 185 178 172 167 167 162 159 161 157 150 145 143 144 144 141 142 144 149 150 152 158 162 162 161 156 156 150 141 131 128 137 137 137 129 121 130 102 85 100 103 97 101 103 93 86 71 56 54 57 54 55 54 59 63 61 60
199 169 148 184 190 175 206 187 204 211 199 249 250 113 233 141 227 261 236 219 209 200 181 191 199 194 187 169 161 170 177 191 192 191 193 191 192 189 186 185 183 182 175 168 164 162 157 158 160 155 148 151 150 148 143 141 138 142 142 140 146 153 151 144 135 141 147 141 136 125 123 126 131 134 127 122 98 100 104 101 98 98 96 91 87 78 66 58 51 55 55 66 69 64 67 69 60
199 172 90 108 219 125 152 201 139 182 145 27 160 190 188 176 249 282 320 268 217 138 133 145 164 148 146 165 178 183 188 190 191 195 197 195 191 188 186 181 177 173 167 163 160 158 155 158 160 156 151 148 148 149 150 143 140 138 140 139 136 129 120 112 109 109 108 122 130 125 124 125 127 124 107 106 108 119 118 108 103 103 107 101 89 81 70 64 56 65 62 68 73 63 69 61 59
183 148 205 211 112 167 80 40 133 101 81 228 173 293 287 306 317 354 344 140 203 125 130 147 159 155 161 183 191 191 189 187 190 197 194 188 187 191 187 177 169 163 159 161 159 158 155 152 150 145 142 143 151 156 149 145 144 141 141 134 131 126 127 134 134 127 123 120 119 117 120 123 117 112 118 115 118 115 122 121 114 109 92 86 74 71 73 67 69 64 70 72 73 71 71 65 61
129 199 209 68 83 119 153 209 347 65 152 241 58 179 267 78 229 332 23 114 214 154 142 151 151 155 175 186 190 192 191 192 195 192 189 187 187 186 184 174 165 156 147 144 147 147 148 149 148 148 148 153 158 156 154 153 148 141 136 130 126 129 129 125 127 127 125 118 110 110 113 116 122 122 115 121 118 124 115 109 101 89 85 74 74 67 64 61 72 72 76 73 70 72 76 70 63
186 197 132 159 208 237 320 107 239 121 195 259 344 271 257 175 233 336 243 203 219 152 144 149 168 181 187 185 187 188 184 182 191 191 185 186 185 182 178 161 150 142 133 133 132 135 142 144 147 153 155 155 155 156 152 142 141 137 135 134 132 126 125 125 125 122 120 116 112 109 105 108 105 105 109 114 116 104 103 98 98 94 84 81 69 63 61 63 64 81 73 78 73 74 72 67 56
193 123 175 182 102 140 128 198 176 123 227 115 266 37 211 226 219 188 199 211 187 159 166 194 191 189 184 181 180 181 184 189 189 187 189 181 175 172 168 149 146 143 138 135 135 138 144 144 144 145 137 139 145 144 123 110 123 126 123 121 121 126 130 131 134 128 116 112 113 114 116 115 118 114 113 100 89 96 99 96 91 93 83 73 68 63 63 63 60 64 71 75 75 72 71 67 62
171 175 183 159 208 215 114 76 131 179 171 178 164 228 278 260 222 166 196 193 192 177 194 201 200 197 195 188 182 182 185 186 186 185 178 170 162 160 145 134 131 129 127 132 139 143 145 142 144 147 147 154 153 141 138 149 140 127 129 129 129 126 125 127 121 114 110 111 113 113 113 121 115 105 102 94 99 101 101 102 93 86 83 74 66 62 63 73 62 58 67 73 69 71 74 69 67
182 171 189 164 155 158 167 236 22 98 101 202 134 230 270 268 177 218 207 213 191 200 189 196 200 189 186 189 194 190 187 184 170 161 154 147 148 149 133 126 124 128 134 140 141 141 147 146 151 152 150 159 154 148 142 129 124 136 130 129 124 123 125 122 117 112 110 112 112 113 121 112 100 91 98 101 100 100 95 91 93 89 82 81 80 67 63 76 65 65 64 61 70 75 79 77 71